EW6456 Weather Reports


time (UTC)temp
C
wind
direction
speed
KPH
gust
KPH
rain 1hr
cm
rain 24hr
cm
rain mn
cm
humidity
%
barometer
mb
20260505164600 4 342 4.8 0.0 0.00 0.00 0.00 54 1019.8
20260505163055 5 91 6.4 27.4 0.00 0.00 0.00 51 1019.7
20260505161546 5 169 8.0 24.1 0.00 0.00 0.00 51 1019.6
20260505153104 5 259 3.2 25.7 0.00 0.00 0.00 55 1019.5
20260505151550 5 20 0.0 16.1 0.00 0.00 0.00 59 1019.6
20260505124527 -2 54 0.0 0.0 0.00 0.00 0.00 82 1018.6
20260505123021 -2 248 0.0 0.0 0.00 0.00 0.00 81 1018.2
20260505121520 -2 45 0.0 0.0 0.00 0.00 0.00 76 1018.3
20260505120015 -1 180 0.0 0.0 0.00 0.00 0.00 75 1018.2
20260505114529 -3 134 0.0 0.0 0.00 0.00 0.00 83 1018.1
20260505113013 -3 138 0.0 0.0 0.00 0.00 0.00 84 1018.0
20260505111512 -3 11 0.0 0.0 0.00 0.00 0.00 82 1018.0
20260505101505 -2 186 0.0 0.0 0.00 0.00 0.00 83 1017.9
20260505100002 -3 268 0.0 0.0 0.00 0.00 0.00 82 1017.7
20260505094607 -2 138 0.0 0.0 0.00 0.00 0.00 82 1017.6
20260505093055 -2 148 0.0 0.0 0.00 0.00 0.00 81 1017.6
20260505091558 -2 330 0.0 0.0 0.00 0.00 0.00 80 1017.4
20260505090055 -1 293 0.0 0.0 0.00 0.00 0.00 77 1017.4
20260505084546 -1 153 0.0 0.0 0.00 0.00 0.00 76 1017.3
20260505083047 0 0.0 0.0 0.00 0.00 0.00 75 1017.4
20260505081555 0 135 0.0 0.0 0.00 0.00 0.00 75 1017.3
20260505080042 0 282 0.0 0.0 0.00 0.00 0.00 74 1017.4
20260505074547 0 324 0.0 0.0 0.00 0.00 0.00 75 1017.5
20260505073034 0 136 0.0 0.0 0.00 0.00 0.00 73 1017.4
20260505071532 0 358 0.0 0.0 0.00 0.00 0.00 75 1017.2
20260505070027 0 0.0 0.0 0.00 0.00 0.00 76 1017.2
20260505064524 0 23 0.0 0.0 0.00 0.00 0.00 76 1017.1
20260505063028 0 355 0.0 0.0 0.00 0.00 0.00 75 1017.1
20260505061525 1 8 0.0 0.0 0.00 0.00 0.00 71 1016.9
20260505060009 2 137 0.0 0.0 0.00 0.00 0.00 65 1016.7
20260505054518 2 39 0.0 0.0 0.00 0.00 0.00 65 1016.6
20260505053001 3 200 0.0 0.0 0.00 0.00 0.00 64 1016.5
20260505051559 3 217 0.0 0.0 0.00 0.00 0.00 62 1016.1
20260505041544 5 68 0.0 12.9 0.00 0.00 0.00 57 1015.2
20260505040040 6 326 12.9 30.6 0.00 0.00 0.00 53 1014.8
20260505034535 6 146 3.2 20.9 0.00 0.00 0.00 53 1014.5
20260505033035 7 246 0.0 0.0 0.00 0.00 0.00 51 1013.9
20260505031525 7 252 0.0 4.8 0.00 0.00 0.00 49 1013.5
20260505030022 8 293 6.4 22.5 0.00 0.00 0.00 47 1013.2
20260505024545 8 326 0.0 0.0 0.00 0.00 0.00 42 1012.7
20260505023015 9 278 0.0 0.0 0.00 0.00 0.00 41 1012.4
20260505021528 9 163 0.0 0.0 0.00 0.00 0.00 40 1012.3
20260505020011 10 165 0.0 20.9 0.00 0.00 0.00 38 1012.2
20260505014510 10 345 0.0 0.0 0.00 0.00 0.00 36 1011.8
20260505013008 11 355 0.0 11.3 0.00 0.00 0.00 34 1011.7
20260505011508 11 326 0.0 11.3 0.00 0.00 0.00 35 1011.5
20260505010007 11 184 3.2 20.9 0.00 0.00 0.00 34 1011.5
20260505004513 11 197 12.9 27.4 0.00 0.00 0.00 34 1011.4
20260505003003 11 143 0.0 29.0 0.00 0.00 0.00 37 1011.5
20260505001503 11 7 11.3 33.8 0.00 0.00 0.00 35 1011.3
20260505000002 11 176 6.4 20.9 0.00 0.00 0.00 36 1011.3
20260504234501 12 97 6.4 22.5 0.00 0.00 0.00 37 1011.1
20260504233003 12 349 6.4 20.9 0.00 0.00 0.00 36 1010.8
20260504233001 12 264 6.4 20.9 0.00 0.00 0.00 36 1010.8
20260504231557 12 346 0.0 19.3 0.00 0.00 0.00 38 1010.6
20260504230103 12 75 4.8 20.9 0.00 0.00 0.00 37 1010.7
20260504224556 12 333 8.0 20.9 0.00 0.00 0.00 37 1010.5
20260504223102 12 40 0.0 14.5 0.00 0.00 0.00 40 1010.5
20260504221532 12 240 4.8 22.5 0.00 0.00 0.00 40 1010.5
20260504220025 12 119 3.2 33.8 0.00 0.00 0.00 42 1010.7
20260504214522 12 309 9.7 35.4 0.00 0.00 0.00 42 1010.7
20260504213022 12 184 8.0 33.8 0.00 0.00 0.00 42 1010.7
20260504211521 12 348 12.9 35.4 0.00 0.00 0.00 42 1010.7
20260504210022 12 173 14.5 32.2 0.00 0.00 0.00 42 1010.9
20260504204519 12 285 9.7 38.6 0.00 0.00 0.00 41 1010.9
20260504203018 12 150 9.7 32.2 0.00 0.00 0.00 42 1010.8
20260504201516 12 273 12.9 27.4 0.00 0.00 0.00 41 1010.9
20260504200017 11 246 1.6 16.1 0.00 0.00 0.00 47 1010.9
20260504194546 11 255 14.5 27.4 0.00 0.00 0.00 47 1011.1
20260504193045 11 360 8.0 33.8 0.00 0.00 0.00 47 1011.1
20260504191542 11 319 16.1 40.2 0.00 0.00 0.00 47 1011.4
20260504190041 11 59 1.6 27.4 0.00 0.00 0.00 45 1011.4
20260504184539 11 105 4.8 35.4 0.00 0.00 0.00 45 1011.5
20260504183039 11 333 22.5 37.0 0.00 0.00 0.00 44 1011.4
20260504181508 11 36 14.5 37.0 0.00 0.00 0.00 42 1011.4
20260504180008 10 349 4.8 30.6 0.00 0.00 0.00 44 1011.6
20260504174536 10 238 3.2 29.0 0.00 0.00 0.00 43 1011.6
20260504173036 10 297 6.4 29.0 0.00 0.00 0.00 42 1011.7
20260504171534 10 86 16.1 30.6 0.00 0.00 0.00 45 1011.7